Time,TemperatureF,DewpointF,PressureIn,WindDirection,WindDirectionDegrees,WindSpeedMPH,WindSpeedGustMPH,Humidity,HourlyPrecipIn,Conditions,Clouds,dailyrainin,SoftwareType,DateUTC
2013-04-02 00:02:00,29.0,18.0,-100.00,WNW,295,6.0,7.0,61,0.00,,,-99.99,,2013-04-02 05:02:00,
2013-04-02 00:12:00,29.0,18.0,-100.00,WNW,290,6.0,7.0,61,0.00,,,-99.99,,2013-04-02 05:12:00,
2013-04-02 00:22:00,29.0,18.0,-100.00,NW,315,5.0,7.0,62,0.00,,,-99.99,,2013-04-02 05:22:00,
2013-04-02 00:32:00,30.0,19.0,-100.00,NNW,335,4.0,7.0,63,0.00,,,-99.99,,2013-04-02 05:32:00,
2013-04-02 00:42:00,29.0,18.0,-100.00,NW,315,4.0,6.0,63,0.00,,,-99.99,,2013-04-02 05:42:00,
2013-04-02 00:52:00,29.0,18.0,-100.00,NW,305,4.0,7.0,63,0.00,,,-99.99,,2013-04-02 05:52:00,
2013-04-02 01:02:00,28.0,18.0,-100.00,NW,320,4.0,6.0,65,0.00,,,-99.99,,2013-04-02 06:02:00,
2013-04-02 01:12:00,29.0,19.0,-100.00,NW,325,2.0,6.0,66,0.00,,,-99.99,,2013-04-02 06:12:00,
2013-04-02 01:22:00,28.0,19.0,-100.00,NW,310,4.0,5.0,68,0.00,,,-99.99,,2013-04-02 06:22:00,
2013-04-02 01:32:00,28.0,19.0,-100.00,NW,315,4.0,4.0,68,0.00,,,-99.99,,2013-04-02 06:32:00,
2013-04-02 01:42:00,28.0,19.0,-100.00,NW,310,4.0,6.0,69,0.00,,,-99.99,,2013-04-02 06:42:00,
2013-04-02 01:52:00,27.0,19.0,-100.00,WNW,285,4.0,5.0,70,0.00,,,-99.99,,2013-04-02 06:52:00,
2013-04-02 02:02:00,27.0,19.0,-100.00,WNW,295,3.0,4.0,71,0.00,,,-99.99,,2013-04-02 07:02:00,
2013-04-02 02:12:00,27.0,19.0,-100.00,NW,305,4.0,4.0,72,0.00,,,-99.99,,2013-04-02 07:12:00,
2013-04-02 02:22:00,27.0,20.0,-100.00,WSW,240,2.0,4.0,73,0.00,,,-99.99,,2013-04-02 07:22:00,
2013-04-02 02:32:00,27.0,20.0,-100.00,WNW,300,2.0,2.0,74,0.00,,,-99.99,,2013-04-02 07:32:00,
2013-04-02 02:42:00,27.0,20.0,-100.00,NW,315,2.0,3.0,74,0.00,,,-99.99,,2013-04-02 07:42:00,
2013-04-02 02:52:00,27.0,20.0,-100.00,NW,325,2.0,4.0,75,0.00,,,-99.99,,2013-04-02 07:52:00,
2013-04-02 03:02:00,27.0,20.0,-100.00,NW,310,2.0,4.0,77,0.00,,,-99.99,,2013-04-02 08:02:00,
2013-04-02 03:13:00,26.0,20.0,-100.00,NW,305,3.0,4.0,78,0.00,,,-99.99,,2013-04-02 08:13:00,
2013-04-02 03:22:00,25.0,20.0,-100.00,WSW,250,2.0,2.0,80,0.00,,,-99.99,,2013-04-02 08:22:00,
2013-04-02 03:32:00,25.0,20.0,-100.00,WSW,250,2.0,2.0,80,0.00,,,-99.99,,2013-04-02 08:32:00,
2013-04-02 03:42:00,25.0,20.0,-100.00,West,265,2.0,2.0,81,0.00,,,-99.99,,2013-04-02 08:42:00,
2013-04-02 03:52:00,24.0,20.0,-100.00,WNW,295,2.0,2.0,81,0.00,,,-99.99,,2013-04-02 08:52:00,
2013-04-02 04:02:00,24.0,20.0,-100.00,NW,315,2.0,4.0,82,0.00,,,-99.99,,2013-04-02 09:02:00,
2013-04-02 04:12:00,25.0,20.0,-100.00,NNW,335,2.0,3.0,82,0.00,,,-99.99,,2013-04-02 09:12:00,
2013-04-02 04:22:00,25.0,20.0,-100.00,NNW,330,2.0,4.0,84,0.00,,,-99.99,,2013-04-02 09:22:00,
2013-04-02 04:32:00,24.0,20.0,-100.00,NNW,340,1.0,2.0,84,0.00,,,-99.99,,2013-04-02 09:32:00,
2013-04-02 04:43:00,24.0,20.0,-100.00,WSW,255,2.0,3.0,85,0.00,,,-99.99,,2013-04-02 09:43:00,
2013-04-02 04:52:00,24.0,20.0,-100.00,SW,235,2.0,3.0,86,0.00,,,-99.99,,2013-04-02 09:52:00,
2013-04-02 05:03:00,23.0,20.0,-100.00,West,270,2.0,3.0,86,0.00,,,-99.99,,2013-04-02 10:03:00,
2013-04-02 05:13:00,23.0,19.0,-100.00,NNW,330,2.0,3.0,86,0.00,,,-99.99,,2013-04-02 10:13:00,
2013-04-02 05:23:00,23.0,20.0,-100.00,NW,320,2.0,3.0,88,0.00,,,-99.99,,2013-04-02 10:23:00,
2013-04-02 05:33:00,23.0,20.0,-100.00,NW,315,2.0,3.0,88,0.00,,,-99.99,,2013-04-02 10:33:00,
2013-04-02 05:42:00,22.0,20.0,-100.00,West,280,3.0,3.0,89,0.00,,,-99.99,,2013-04-02 10:42:00,
2013-04-02 05:52:00,22.0,20.0,-100.00,West,265,2.0,3.0,90,0.00,,,-99.99,,2013-04-02 10:52:00,
2013-04-02 06:02:00,22.0,19.0,-100.00,West,275,2.0,2.0,90,0.00,,,-99.99,,2013-04-02 11:02:00,
2013-04-02 06:12:00,22.0,19.0,-100.00,West,260,2.0,2.0,90,0.00,,,-99.99,,2013-04-02 11:12:00,
2013-04-02 06:22:00,22.0,20.0,-100.00,WSW,245,1.0,2.0,91,0.00,,,-99.99,,2013-04-02 11:22:00,
2013-04-02 06:33:00,22.0,19.0,-100.00,West,270,1.0,1.0,91,0.00,,,-99.99,,2013-04-02 11:33:00,
2013-04-02 06:43:00,22.0,20.0,-100.00,NNW,340,2.0,3.0,91,0.00,,,-99.99,,2013-04-02 11:43:00,
2013-04-02 06:52:00,22.0,20.0,-100.00,NNW,340,1.0,3.0,91,0.00,,,-99.99,,2013-04-02 11:52:00,
2013-04-02 07:02:00,22.0,20.0,-100.00,NW,305,2.0,2.0,91,0.00,,,-99.99,,2013-04-02 12:02:00,
2013-04-02 07:12:00,22.0,20.0,-100.00,WNW,285,2.0,3.0,92,0.00,,,-99.99,,2013-04-02 12:12:00,
2013-04-02 07:22:00,21.0,19.0,-100.00,West,280,3.0,4.0,92,0.00,,,-99.99,,2013-04-02 12:22:00,
2013-04-02 07:32:00,21.0,19.0,-100.00,WNW,285,3.0,4.0,92,0.00,,,-99.99,,2013-04-02 12:32:00,
2013-04-02 07:42:00,23.0,21.0,-100.00,NW,310,3.0,4.0,92,0.00,,,-99.99,,2013-04-02 12:42:00,
2013-04-02 07:52:00,25.0,23.0,-100.00,WNW,295,1.0,2.0,92,0.00,,,-99.99,,2013-04-02 12:52:00,
2013-04-02 08:02:00,25.0,23.0,-100.00,WNW,295,1.0,2.0,92,0.00,,,-99.99,,2013-04-02 13:02:00,
2013-04-02 08:12:00,25.0,23.0,-100.00,WNW,290,2.0,2.0,91,0.00,,,-99.99,,2013-04-02 13:12:00,
2013-04-02 08:22:00,26.0,23.0,-100.00,West,260,0.0,2.0,89,0.00,,,-99.99,,2013-04-02 13:22:00,
2013-04-02 08:33:00,27.0,24.0,-100.00,West,260,0.0,2.0,88,0.00,,,-99.99,,2013-04-02 13:33:00,
2013-04-02 08:42:00,28.0,24.0,-100.00,WSW,245,1.0,2.0,85,0.00,,,-99.99,,2013-04-02 13:42:00,
2013-04-02 08:52:00,30.0,24.0,-100.00,NW,325,1.0,4.0,78,0.00,,,-99.99,,2013-04-02 13:52:00,
2013-04-02 09:02:00,30.0,24.0,-100.00,NW,325,1.0,4.0,78,0.00,,,-99.99,,2013-04-02 14:02:00,
2013-04-02 09:12:00,31.0,24.0,-100.00,NW,310,4.0,4.0,75,0.00,,,-99.99,,2013-04-02 14:12:00,
2013-04-02 09:23:00,32.0,24.0,-100.00,NW,315,4.0,6.0,71,0.00,,,-99.99,,2013-04-02 14:23:00,
2013-04-02 09:32:00,33.0,23.0,-100.00,NNW,330,4.0,6.0,68,0.00,,,-99.99,,2013-04-02 14:32:00,
2013-04-02 09:42:00,34.0,22.0,-100.00,WNW,295,3.0,6.0,63,0.00,,,-99.99,,2013-04-02 14:42:00,
2013-04-02 09:52:00,34.0,22.0,-100.00,NW,315,4.0,7.0,60,0.00,,,-99.99,,2013-04-02 14:52:00,
2013-04-02 10:02:00,35.0,21.0,-100.00,West,270,4.0,6.0,54,0.00,,,-99.99,,2013-04-02 15:02:00,
2013-04-02 10:11:00,36.0,20.0,-100.00,NNW,340,4.0,7.0,51,0.00,,,-99.99,,2013-04-02 15:11:00,
2013-04-02 10:22:00,36.0,18.0,-100.00,WNW,285,4.0,9.0,47,0.00,,,-99.99,,2013-04-02 15:22:00,
2013-04-02 10:33:00,37.0,18.0,-100.00,WNW,295,6.0,9.0,45,0.00,,,-99.99,,2013-04-02 15:33:00,
2013-04-02 10:43:00,37.0,18.0,-100.00,NW,305,7.0,11.0,44,0.00,,,-99.99,,2013-04-02 15:43:00,
2013-04-02 10:54:00,38.0,18.0,-100.00,NW,315,7.0,9.0,43,0.00,,,-99.99,,2013-04-02 15:54:00,
2013-04-02 11:03:00,38.0,18.0,-100.00,WNW,300,8.0,12.0,43,0.00,,,-99.99,,2013-04-02 16:03:00,
2013-04-02 11:13:00,38.0,18.0,-100.00,WNW,290,9.0,11.0,43,0.00,,,-99.99,,2013-04-02 16:13:00,
2013-04-02 11:24:00,39.0,18.0,-100.00,WNW,300,7.0,11.0,43,0.00,,,-99.99,,2013-04-02 16:24:00,
2013-04-02 11:35:00,39.0,18.0,-100.00,WNW,300,7.0,12.0,42,0.00,,,-99.99,,2013-04-02 16:35:00,
2013-04-02 11:43:00,40.0,18.0,-100.00,NW,320,7.0,11.0,41,0.00,,,-99.99,,2013-04-02 16:43:00,
2013-04-02 11:52:00,40.0,18.0,-100.00,WNW,290,9.0,13.0,40,0.00,,,-99.99,,2013-04-02 16:52:00,
2013-04-02 12:05:00,40.0,18.0,-100.00,WNW,290,9.0,13.0,40,0.00,,,-99.99,,2013-04-02 17:05:00,
2013-04-02 12:13:00,41.0,18.0,-100.00,West,275,6.0,16.0,40,0.00,,,-99.99,,2013-04-02 17:13:00,
2013-04-02 12:24:00,41.0,18.0,-100.00,NW,315,10.0,14.0,39,0.00,,,-99.99,,2013-04-02 17:24:00,
2013-04-02 12:34:00,41.0,18.0,-100.00,NW,305,7.0,12.0,38,0.00,,,-99.99,,2013-04-02 17:34:00,
2013-04-02 12:43:00,42.0,18.0,-100.00,NNW,340,6.0,16.0,38,0.00,,,-99.99,,2013-04-02 17:43:00,
2013-04-02 12:53:00,42.0,18.0,-100.00,WNW,295,12.0,17.0,37,0.00,,,-99.99,,2013-04-02 17:53:00,
2013-04-02 13:03:00,42.0,18.0,-100.00,NW,325,11.0,18.0,36,0.00,,,-99.99,,2013-04-02 18:03:00,
2013-04-02 13:12:00,42.0,17.0,-100.00,WNW,285,13.0,19.0,35,0.00,,,-99.99,,2013-04-02 18:12:00,
2013-04-02 13:23:00,43.0,18.0,-100.00,NW,320,6.0,12.0,35,0.00,,,-99.99,,2013-04-02 18:23:00,
2013-04-02 13:34:00,44.0,19.0,-100.00,WNW,295,11.0,16.0,35,0.00,,,-99.99,,2013-04-02 18:34:00,
2013-04-02 13:43:00,44.0,18.0,-100.00,West,275,10.0,17.0,34,0.00,,,-99.99,,2013-04-02 18:43:00,
2013-04-02 13:53:00,45.0,18.0,-100.00,NNW,330,7.0,13.0,32,0.00,,,-99.99,,2013-04-02 18:53:00,
2013-04-02 14:03:00,45.0,18.0,-100.00,NNW,330,7.0,13.0,32,0.00,,,-99.99,,2013-04-02 19:03:00,
2013-04-02 14:13:00,45.0,18.0,-100.00,NW,325,10.0,16.0,32,0.00,,,-99.99,,2013-04-02 19:13:00,
2013-04-02 14:22:00,45.0,17.0,-100.00,NW,325,9.0,16.0,32,0.00,,,-99.99,,2013-04-02 19:22:00,
2013-04-02 14:33:00,46.0,18.0,-100.00,WNW,300,9.0,14.0,32,0.00,,,-99.99,,2013-04-02 19:33:00,
2013-04-02 14:45:00,46.0,18.0,-100.00,WNW,295,9.0,14.0,32,0.00,,,-99.99,,2013-04-02 19:45:00,
2013-04-02 14:53:00,47.0,18.0,-100.00,NW,305,11.0,19.0,31,0.00,,,-99.99,,2013-04-02 19:53:00,
2013-04-02 15:03:00,47.0,18.0,-100.00,NW,305,11.0,19.0,31,0.00,,,-99.99,,2013-04-02 20:03:00,
2013-04-02 15:13:00,47.0,18.0,-100.00,NW,310,9.0,18.0,30,0.00,,,-99.99,,2013-04-02 20:13:00,
2013-04-02 15:22:00,47.0,18.0,-100.00,NW,325,13.0,17.0,30,0.00,,,-99.99,,2013-04-02 20:22:00,
2013-04-02 15:33:00,47.0,18.0,-100.00,NW,315,12.0,20.0,30,0.00,,,-99.99,,2013-04-02 20:33:00,
2013-04-02 15:43:00,47.0,18.0,-100.00,WNW,295,13.0,17.0,30,0.00,,,-99.99,,2013-04-02 20:43:00,
2013-04-02 15:53:00,48.0,18.0,-100.00,WNW,295,9.0,17.0,29,0.00,,,-99.99,,2013-04-02 20:53:00,
2013-04-02 16:04:00,48.0,18.0,-100.00,WNW,295,9.0,17.0,29,0.00,,,-99.99,,2013-04-02 21:04:00,
2013-04-02 16:13:00,48.0,18.0,-100.00,NW,325,11.0,20.0,29,0.00,,,-99.99,,2013-04-02 21:13:00,
2013-04-02 16:23:00,49.0,18.0,-100.00,NW,320,10.0,17.0,29,0.00,,,-99.99,,2013-04-02 21:23:00,
2013-04-02 16:34:00,48.0,18.0,-100.00,NW,310,11.0,19.0,29,0.00,,,-99.99,,2013-04-02 21:34:00,
2013-04-02 16:43:00,49.0,18.0,-100.00,WNW,290,10.0,16.0,29,0.00,,,-99.99,,2013-04-02 21:43:00,
2013-04-02 16:54:00,49.0,18.0,-100.00,NW,325,9.0,20.0,29,0.00,,,-99.99,,2013-04-02 21:54:00,
2013-04-02 17:04:00,49.0,18.0,-100.00,NW,325,9.0,20.0,29,0.00,,,-99.99,,2013-04-02 22:04:00,
2013-04-02 17:13:00,49.0,18.0,-100.00,NW,315,13.0,18.0,29,0.00,,,-99.99,,2013-04-02 22:13:00,
2013-04-02 17:24:00,49.0,18.0,-100.00,WNW,285,11.0,17.0,29,0.00,,,-99.99,,2013-04-02 22:24:00,
2013-04-02 17:33:00,48.0,17.0,-100.00,North,350,11.0,17.0,29,0.00,,,-99.99,,2013-04-02 22:33:00,
2013-04-02 17:43:00,48.0,18.0,-100.00,NW,315,10.0,20.0,29,0.00,,,-99.99,,2013-04-02 22:43:00,
2013-04-02 17:53:00,47.0,17.0,-100.00,NNW,345,9.0,17.0,29,0.00,,,-99.99,,2013-04-02 22:53:00,
2013-04-02 18:02:00,47.0,18.0,-100.00,NNW,330,13.0,20.0,30,0.00,,,-99.99,,2013-04-02 23:02:00,
2013-04-02 18:12:00,47.0,18.0,-100.00,NW,320,12.0,19.0,31,0.00,,,-99.99,,2013-04-02 23:12:00,
2013-04-02 18:23:00,46.0,17.0,-100.00,NNW,335,14.0,19.0,30,0.00,,,-99.99,,2013-04-02 23:23:00,
2013-04-02 18:34:00,46.0,17.0,-100.00,NNW,345,12.0,20.0,30,0.00,,,-99.99,,2013-04-02 23:34:00,
2013-04-02 18:42:00,45.0,16.0,-100.00,NW,315,12.0,20.0,30,0.00,,,-99.99,,2013-04-02 23:42:00,
2013-04-02 18:52:00,45.0,16.0,-100.00,NNW,340,12.0,20.0,30,0.00,,,-99.99,,2013-04-02 23:52:00,
2013-04-02 19:03:00,45.0,16.0,-100.00,North,0,11.0,19.0,31,0.00,,,-99.99,,2013-04-03 00:03:00,
2013-04-02 19:13:00,44.0,16.0,-100.00,North,0,12.0,16.0,32,0.00,,,-99.99,,2013-04-03 00:13:00,
2013-04-02 19:23:00,44.0,17.0,-100.00,NNW,340,11.0,17.0,33,0.00,,,-99.99,,2013-04-03 00:23:00,
2013-04-02 19:46:00,43.0,17.0,-100.00,North,355,13.0,16.0,34,0.00,,,-99.99,,2013-04-03 00:46:00,
2013-04-02 19:53:00,42.0,17.0,-100.00,North,10,11.0,17.0,36,0.00,,,-99.99,,2013-04-03 00:53:00,
2013-04-02 20:03:00,42.0,17.0,-100.00,North,10,11.0,17.0,36,0.00,,,-99.99,,2013-04-03 01:03:00,
2013-04-02 20:12:00,41.0,17.0,-100.00,North,5,11.0,16.0,37,0.00,,,-99.99,,2013-04-03 01:12:00,
2013-04-02 20:22:00,40.0,17.0,-100.00,North,5,12.0,19.0,38,0.00,,,-99.99,,2013-04-03 01:22:00,
2013-04-02 20:33:00,40.0,17.0,-100.00,North,10,12.0,17.0,39,0.00,,,-99.99,,2013-04-03 01:33:00,
2013-04-02 20:42:00,39.0,18.0,-100.00,North,10,10.0,14.0,40,0.00,,,-99.99,,2013-04-03 01:42:00,
2013-04-02 20:52:00,38.0,18.0,-100.00,North,5,9.0,14.0,43,0.00,,,-99.99,,2013-04-03 01:52:00,
2013-04-02 21:03:00,38.0,18.0,-100.00,North,5,9.0,14.0,43,0.00,,,-99.99,,2013-04-03 02:03:00,
2013-04-02 21:13:00,38.0,18.0,-100.00,North,5,8.0,15.0,43,0.00,,,-99.99,,2013-04-03 02:13:00,
2013-04-02 21:23:00,38.0,18.0,-100.00,North,5,9.0,14.0,44,0.00,,,-99.99,,2013-04-03 02:23:00,
2013-04-02 21:34:00,38.0,18.0,-100.00,North,5,9.0,12.0,44,0.00,,,-99.99,,2013-04-03 02:34:00,
2013-04-02 21:43:00,37.0,18.0,-100.00,North,5,7.0,12.0,45,0.00,,,-99.99,,2013-04-03 02:43:00,
2013-04-02 21:52:00,37.0,18.0,-100.00,NNE,15,7.0,12.0,46,0.00,,,-99.99,,2013-04-03 02:52:00,
2013-04-02 22:04:00,37.0,18.0,-100.00,North,10,7.0,12.0,46,0.00,,,-99.99,,2013-04-03 03:04:00,
2013-04-02 22:13:00,37.0,18.0,-100.00,NNE,20,7.0,12.0,46,0.00,,,-99.99,,2013-04-03 03:13:00,
2013-04-02 22:22:00,37.0,18.0,-100.00,NNE,15,7.0,12.0,47,0.00,,,-99.99,,2013-04-03 03:22:00,
2013-04-02 22:37:00,36.0,18.0,-100.00,NNE,25,7.0,11.0,47,0.00,,,-99.99,,2013-04-03 03:37:00,
2013-04-02 22:43:00,36.0,18.0,-100.00,North,10,6.0,10.0,47,0.00,,,-99.99,,2013-04-03 03:43:00,
2013-04-02 22:53:00,36.0,18.0,-100.00,NNE,20,4.0,7.0,47,0.00,,,-99.99,,2013-04-03 03:53:00,
2013-04-02 23:03:00,36.0,18.0,-100.00,North,10,4.0,7.0,48,0.00,,,-99.99,,2013-04-03 04:03:00,
2013-04-02 23:12:00,35.0,18.0,-100.00,NNW,340,4.0,7.0,49,0.00,,,-99.99,,2013-04-03 04:12:00,
2013-04-02 23:23:00,34.0,18.0,-100.00,NW,320,1.0,4.0,51,0.00,,,-99.99,,2013-04-03 04:23:00,
2013-04-02 23:33:00,34.0,18.0,-100.00,North,350,2.0,4.0,52,0.00,,,-99.99,,2013-04-03 04:33:00,
2013-04-02 23:43:00,33.0,18.0,-100.00,WNW,295,2.0,4.0,55,0.00,,,-99.99,,2013-04-03 04:43:00,
2013-04-02 23:53:00,32.0,19.0,-100.00,North,5,3.0,6.0,57,0.00,,,-99.99,,2013-04-03 04:53:00,